^^
Station Historical Data
 
Daily Summary for March 24, 2017 Units:  English    Metric   Both
« Previous Day
Next Day »
Daily Weekly Monthly Yearly Custom
  Current: High: Low: Average:
Temperature: 39.3 °F 44.2 °F 39.3 °F 41.6 °F
Dew Point: 32.0 °F 33.3 °F 31.1 °F 32.3 °F
Humidity: 75% 75% 64% 69%
Wind Speed: 0.0mph 0.1mph 0.0mph 0mph
Wind Gust: 0.0mph 1.1mph - -
WindCalm - - South
Pressure: 30.47 in 30.49 in 30.47 in -
Precipitation: 0.00 in      
Historical Graphs
 
 
Tabular Data for March 24, 2017
Time Temperature Dew Point Pressure Wind Wind Speed Wind Gust Humidity Rainfall Rate (Hourly) solar Conditions
00:00 44.2 °F 32.8 °F 30.48 in Calm     64% 0.00 in 0.0 W/m2 CLR
00:05 44.0 °F 33.0 °F 30.48 in Calm     65% 0.00 in 0.0 W/m2 CLR
00:10 43.9 °F 33.3 °F 30.48 in Calm     66% 0.00 in 0.0 W/m2 CLR
00:15 43.8 °F 32.8 °F 30.48 in Calm     65% 0.00 in 0.0 W/m2 CLR
00:20 43.7 °F 33.1 °F 30.48 in Calm     66% 0.00 in 0.0 W/m2 CLR
00:25 43.5 °F 33.3 °F 30.48 in Calm     67% 0.00 in 0.0 W/m2 CLR
00:30 43.4 °F 33.2 °F 30.48 in Calm     67% 0.00 in 0.0 W/m2 CLR
00:35 43.2 °F 33.0 °F 30.48 in Calm     67% 0.00 in 0.0 W/m2 CLR
00:40 43.0 °F 33.2 °F 30.48 in Calm     68% 0.00 in 0.0 W/m2 CLR
00:45 42.9 °F 32.7 °F 30.48 in Calm     67% 0.00 in 0.0 W/m2 CLR
00:50 42.8 °F 33.0 °F 30.48 in Calm     68% 0.00 in 0.0 W/m2 CLR
00:55 42.7 °F 33.2 °F 30.48 in Calm     69% 0.00 in 0.0 W/m2 CLR
01:00 42.6 °F 32.8 °F 30.47 in Calm     68% 0.00 in 0.0 W/m2 CLR
01:05 42.4 °F 32.9 °F 30.47 in Calm     69% 0.00 in 0.0 W/m2 CLR
01:10 42.3 °F 32.8 °F 30.47 in Calm     69% 0.00 in 0.0 W/m2 CLR
01:15 42.2 °F 32.8 °F 30.47 in South 0.1 mph 1.1 mph 69% 0.00 in 0.0 W/m2 CLR
01:20 41.9 °F 32.5 °F 30.47 in Calm     69% 0.00 in 0.0 W/m2 CLR
01:25 41.9 °F 32.1 °F 30.48 in Calm     68% 0.00 in 0.0 W/m2 CLR
01:30 41.7 °F 31.9 °F 30.48 in Calm     68% 0.00 in 0.0 W/m2 CLR
01:35 41.6 °F 31.4 °F 30.48 in Calm     67% 0.00 in 0.0 W/m2 CLR
01:40 41.6 °F 31.1 °F 30.48 in Calm     66% 0.00 in 0.0 W/m2 CLR
01:45 41.6 °F 31.4 °F 30.48 in Calm     67% 0.00 in 0.0 W/m2 CLR
01:50 41.6 °F 31.8 °F 30.48 in Calm     68% 0.00 in 0.0 W/m2 CLR
01:55 41.6 °F 32.5 °F 30.48 in Calm     70% 0.00 in 0.0 W/m2 CLR
02:00 41.6 °F 32.5 °F 30.48 in Calm     70% 0.00 in 0.0 W/m2 CLR
02:05 41.6 °F 32.2 °F 30.48 in Calm     69% 0.00 in 0.0 W/m2 CLR
02:10 41.5 °F 32.4 °F 30.48 in Calm     70% 0.00 in 0.0 W/m2 CLR
02:15 41.3 °F 32.2 °F 30.48 in Calm     70% 0.00 in 0.0 W/m2 CLR
02:20 41.3 °F 31.9 °F 30.48 in Calm     69% 0.00 in 0.0 W/m2 CLR
02:25 41.1 °F 31.3 °F 30.49 in Calm     68% 0.00 in 0.0 W/m2 CLR
02:30 41.0 °F 31.6 °F 30.48 in Calm     69% 0.00 in 0.0 W/m2 CLR
02:35 41.0 °F 32.3 °F 30.48 in Calm     71% 0.00 in 0.0 W/m2 CLR
02:40 40.9 °F 31.9 °F 30.48 in Calm     70% 0.00 in 0.0 W/m2 CLR
02:45 40.9 °F 31.9 °F 30.48 in Calm     70% 0.00 in 0.0 W/m2 CLR
02:50 40.8 °F 32.1 °F 30.48 in Calm     71% 0.00 in 0.0 W/m2 CLR
02:55 40.7 °F 32.0 °F 30.48 in Calm     71% 0.00 in 0.0 W/m2 CLR
03:00 40.7 °F 32.4 °F 30.48 in Calm     72% 0.00 in 0.0 W/m2 CLR
03:05 40.6 °F 32.6 °F 30.48 in Calm     73% 0.00 in 0.0 W/m2 CLR
03:10 40.5 °F 32.5 °F 30.48 in Calm     73% 0.00 in 0.0 W/m2 CLR
03:15 40.4 °F 32.1 °F 30.48 in Calm     72% 0.00 in 0.0 W/m2 CLR
03:20 40.3 °F 32.0 °F 30.48 in Calm     72% 0.00 in 0.0 W/m2 CLR
03:25 40.2 °F 31.9 °F 30.48 in Calm     72% 0.00 in 0.0 W/m2 CLR
03:30 39.9 °F 31.6 °F 30.47 in Calm     72% 0.00 in 0.0 W/m2 CLR
03:35 39.7 °F 31.8 °F 30.47 in Calm     73% 0.00 in 0.0 W/m2 CLR
03:40 39.7 °F 32.1 °F 30.47 in Calm     74% 0.00 in 0.0 W/m2 CLR
03:45 39.6 °F 32.0 °F 30.47 in Calm     74% 0.00 in 0.0 W/m2 CLR
03:50 39.5 °F 32.2 °F 30.47 in Calm     75% 0.00 in 0.0 W/m2 CLR
03:55 39.3 °F 32.0 °F 30.47 in Calm     75% 0.00 in 0.0 W/m2 CLR
Mint Hill, North Carolina, USA
Compliments of Weather Underground - 1.5 mb